Location: ???
(35.5616°N, 139.7977°E)
Time: 03:46:08
(UTC+00:00)

SJ 16-02 - Pass Details

Date: 17 November 2025
Orbit: 585 x 594 km, 75.0° (Epoch: 09 December)

Event Time Altitude Azimuth Distance (km) Brightness Sun altitude
Exits shadow 20:16:04 20° 276° (W) 1,392 2.5 -13.0°
Maximum altitude 20:16:47 20° 262° (W) 1,358 2.6 -12.8°
Drops below altitude 10° 20:19:55 10° 214° (SW) 1,902 3.7 -12.2°
Sets 20:22:34 0° 198° (SSW) 2,795 4.7 -11.7°
